View from above orbital plane
|
View from above satellite
|
Ground track
|
The orbit data is extracted from the following two-line orbital elements,
1 43133U 18004Y 21019.88817991 .00000979 00000-0 42879-4 0 9990
2 43133 97.4239 94.9840 0009847 23.5514 336.6173 15.24373042167994
Epoch (UTC): | 19 January 2021 21:18:58 |
Eccentricity: | 0.0009847 |
inclination: | 97.4239° |
perigee height: | 486 km |
apogee height: | 499 km |
right ascension of ascending node: | 94.9840° |
argument of perigee: | 23.5514° |
revolutions per day: | 15.24373042 |
mean anomaly at epoch: | 336.6173° |
orbit number at epoch: | 16799 |
The dashed part of the orbit path shows where the satellite is in the earth's shadow,
|
|